Flag for Tunisia Weather past 2 weeks in Tunis, Tunisia

Now
73 °F

Passing clouds.


Feels Like: 75 °F
Forecast: 64 / 76 °F
Wind: 6 mph from Southwest

Location: Tunis-Carthage

Current Time: Oct 21, 2014 at 10:31:00 AM

Latest Report: Oct 21, 2014 at 10:00 AM


Visibility: 5 mi

Pressure: 30.09 "Hg

Humidity: 74%

Dew point: 64 °F

Location of TunisLocation

Historic Weather in Tunis — Graph

°F

Tunis temperature yesterday

Maximum temperature yesterday: 82 °F (at 1:00 PM)
Minimum temperature yesterday: 66 °F (at 2:30 AM)
Average temperature yesterday: 72 °F

Past Weeks' High & Low Weather Summary

 TemperatureHumidityPressure
High95 °F (Oct 14, 11:30 AM)100% (Oct 12, 6:30 AM)30.24 "Hg (Oct 12, 6:30 AM)
Low61 °F (Oct 21, 4:00 AM)23% (Oct 14, 2:00 PM)29.71 "Hg (Oct 14, 8:00 PM)
Average77 °F70%30.03 "Hg
* Reported Oct 6 9:00 AM — Oct 21 9:30 AM, Tunis, Weather by CustomWeather, © 2014

Note: Actual official high and low records may vary slightly from our data, if they occured in-between our weather recording intervals... More about our weather records

Advertising

Tunis weather history for previous 24 hours

 ConditionsComfort  
Time TempWeatherWind HumidityBarometerVisibility
9:30 AM
Oct 21
72 °FPassing clouds.6 mph78%30.09 "Hg4 mi
9:00 AM70 °FPassing clouds.5 mph83%30.09 "Hg4 mi
8:30 AM68 °FPassing clouds.3 mph88%30.09 "Hg3 mi
8:00 AM66 °FPassing clouds.3 mph94%30.09 "Hg3 mi
7:30 AM64 °FPassing clouds.No wind100%30.09 "Hg3 mi
7:00 AM61 °FPassing clouds.No wind94%30.07 "Hg3 mi
6:30 AM63 °FPassing clouds.No wind94%30.07 "Hg3 mi
6:00 AM63 °FPassing clouds.No wind94%30.07 "Hg3 mi
5:00 AM63 °FPassing clouds.No wind94%30.07 "Hg3 mi
4:00 AM61 °FPassing clouds.No wind100%30.07 "Hg3 mi
3:30 AM63 °FPassing clouds.No wind94%30.09 "Hg4 mi
3:00 AM64 °FPassing clouds.No wind94%30.09 "Hg4 mi
2:30 AM64 °FPassing clouds.No wind94%30.09 "Hg5 mi
2:00 AM66 °FPassing clouds.No wind88%30.09 "Hg5 mi
1:30 AM66 °FPassing clouds.No wind94%30.09 "Hg5 mi
1:00 AM68 °FPassing clouds.No wind88%30.12 "Hg5 mi
12:30 AM66 °FPassing clouds.No wind94%30.12 "Hg5 mi
12:00 AM66 °FPassing clouds.No wind94%30.12 "HgN/A
11:30 PM
Oct 20
68 °FPassing clouds.No wind88%30.12 "HgN/A
11:00 PM68 °FPassing clouds.No wind88%30.12 "HgN/A
10:30 PM68 °FPassing clouds.No wind88%30.12 "HgN/A
10:00 PM68 °FPassing clouds.No wind88%30.12 "HgN/A
9:30 PM68 °FPassing clouds.No wind88%30.12 "HgN/A
9:00 PM70 °FPassing clouds.No wind83%30.12 "HgN/A
8:30 PM68 °FPassing clouds.No wind88%30.12 "HgN/A
8:00 PM68 °FPassing clouds.No wind88%30.12 "HgN/A
7:30 PM68 °FPassing clouds.No wind88%30.12 "HgN/A
7:00 PM70 °FPassing clouds.No wind83%30.12 "HgN/A
6:30 PM72 °FPassing clouds.3 mph78%30.12 "HgN/A
6:00 PM73 °FPassing clouds.6 mph74%30.12 "HgN/A
5:30 PM75 °FPassing clouds.7 mph69%30.12 "HgN/A
5:00 PM77 °FPassing clouds.8 mph65%30.12 "HgN/A
4:30 PM79 °FPassing clouds.7 mph58%30.12 "HgN/A
4:00 PM79 °FPassing clouds.6 mph61%30.12 "HgN/A
3:30 PM81 °FPassing clouds.7 mph58%30.12 "HgN/A
3:00 PM81 °FPassing clouds.7 mph58%30.12 "HgN/A
2:30 PM81 °FPassing clouds.7 mph58%30.12 "HgN/A
2:00 PM82 °FPassing clouds.6 mph51%30.15 "HgN/A
1:30 PM81 °FPassing clouds.5 mph54%30.15 "HgN/A
1:00 PM82 °FPassing clouds.3 mph55%30.18 "HgN/A
12:30 PM81 °FScattered clouds.3 mph58%30.18 "HgN/A
12:00 PM79 °FScattered clouds.3 mph65%30.18 "HgN/A
11:30 AM81 °FScattered clouds.3 mph62%30.21 "HgN/A
11:00 AM79 °FScattered clouds.No wind70%30.21 "Hg5 mi
10:30 AM75 °FScattered clouds.3 mph78%30.21 "Hg5 mi
10:00 AM72 °FFog.5 mph88%30.24 "Hg2 mi
Weather by CustomWeather, © 2014

See weather overviewHow to use our weather pages